contact:dominique.lefevre@mio.osupytheas.fr, maurice.libes@osupytheas.fr, didier.mallarino@osupytheas.fr
Project:EMSO http://www.emso-fr.org/EMSO-France
Depth: 2436.0 m
Title:EMSO Ligure Ouest : Data MII capteur CSTAR
DateTime,Latitude,Longitude,Instrument_Serial,Reference_Counts,Signal_Counts,Corrected_Signal_raw_counts,Calculated_Beam_c_inverse_meters,Internal_thermistor_counts
DateTime,Latitude,Longitude,Instrument_Serial,Reference_Counts,Signal_Counts,Corrected_Signal_raw_counts,Calculated_Beam_c_inverse_meters,Internal_thermistor_counts
2019-06-12T00:00:57,42.805,6.029,CST-1368DR,9094,12723,15535,0.021,551
2019-06-12T00:03:58,42.805,6.029,CST-1368DR,9094,12724,15536,0.021,551
2019-06-12T00:07:00,42.805,6.029,CST-1368DR,9094,12723,15534,0.021,551
2019-06-12T00:10:01,42.805,6.029,CST-1368DR,9094,12724,15536,0.021,551
2019-06-12T00:13:03,42.805,6.029,CST-1368DR,9094,12725,15537,0.020,551
2019-06-12T00:16:04,42.805,6.029,CST-1368DR,9094,12723,15534,0.021,551
2019-06-12T00:19:06,42.805,6.029,CST-1368DR,9094,12724,15536,0.021,551
2019-06-12T00:22:07,42.805,6.029,CST-1368DR,9094,12724,15536,0.021,551
2019-06-12T00:25:08,42.805,6.029,CST-1368DR,9094,12719,15530,0.022,551
2019-06-12T00:28:10,42.805,6.029,CST-1368DR,9094,12724,15536,0.021,551
2019-06-12T00:31:11,42.805,6.029,CST-1368DR,9094,12725,15537,0.020,551
2019-06-12T00:34:13,42.805,6.029,CST-1368DR,9094,12723,15535,0.021,551
2019-06-12T00:37:14,42.805,6.029,CST-1368DR,9094,12724,15536,0.021,551
2019-06-12T00:40:15,42.805,6.029,CST-1368DR,9094,12723,15535,0.021,551
2019-06-12T00:43:17,42.805,6.029,CST-1368DR,9094,12725,15537,0.020,551
2019-06-12T00:46:18,42.805,6.029,CST-1368DR,9094,12723,15535,0.021,551
2019-06-12T00:49:20,42.805,6.029,CST-1368DR,9094,12724,15536,0.021,551
2019-06-12T00:52:21,42.805,6.029,CST-1368DR,9094,12724,15536,0.021,551
2019-06-12T00:55:22,42.805,6.029,CST-1368DR,9094,12724,15535,0.021,551
2019-06-12T00:58:24,42.805,6.029,CST-1368DR,9094,12724,15535,0.021,551
2019-06-12T01:01:25,42.805,6.029,CST-1368DR,9094,12724,15535,0.021,551
2019-06-12T01:04:27,42.805,6.029,CST-1368DR,9094,12724,15536,0.021,551
2019-06-12T01:07:28,42.805,6.029,CST-1368DR,9094,12725,15537,0.020,551
2019-06-12T01:10:30,42.805,6.029,CST-1368DR,9094,12724,15535,0.021,551
2019-06-12T01:13:31,42.805,6.029,CST-1368DR,9094,12722,15534,0.021,550
2019-06-12T01:16:32,42.805,6.029,CST-1368DR,9094,12722,15533,0.021,550
2019-06-12T01:19:34,42.805,6.029,CST-1368DR,9094,12724,15536,0.021,551
2019-06-12T01:22:35,42.805,6.029,CST-1368DR,9094,12722,15534,0.021,550
2019-06-12T01:25:37,42.805,6.029,CST-1368DR,9094,12719,15530,0.022,551
2019-06-12T01:28:38,42.805,6.029,CST-1368DR,9094,12722,15533,0.021,551
2019-06-12T01:31:39,42.805,6.029,CST-1368DR,9093,12723,15536,0.021,551
2019-06-12T01:34:41,42.805,6.029,CST-1368DR,9094,12719,15530,0.022,551
2019-06-12T01:37:42,42.805,6.029,CST-1368DR,9093,12723,15536,0.021,551
2019-06-12T01:40:44,42.805,6.029,CST-1368DR,9093,12723,15536,0.021,551
2019-06-12T01:43:45,42.805,6.029,CST-1368DR,9093,12718,15530,0.022,551
2019-06-12T01:46:46,42.805,6.029,CST-1368DR,9093,12723,15536,0.021,551
2019-06-12T01:49:48,42.805,6.029,CST-1368DR,9093,12723,15536,0.021,551
2019-06-12T01:52:49,42.805,6.029,CST-1368DR,9093,12723,15536,0.021,551
2019-06-12T01:55:51,42.805,6.029,CST-1368DR,9093,12723,15536,0.021,551
2019-06-12T01:58:52,42.805,6.029,CST-1368DR,9093,12722,15535,0.021,551
2019-06-12T02:01:53,42.805,6.029,CST-1368DR,9093,12723,15536,0.021,551
2019-06-12T02:04:55,42.805,6.029,CST-1368DR,9093,12720,15532,0.022,551
2019-06-12T02:07:56,42.805,6.029,CST-1368DR,9093,12720,15533,0.021,551
2019-06-12T02:10:58,42.805,6.029,CST-1368DR,9093,12722,15535,0.021,551
2019-06-12T02:13:59,42.805,6.029,CST-1368DR,9093,12723,15536,0.021,551
2019-06-12T02:17:00,42.805,6.029,CST-1368DR,9093,12722,15535,0.021,550
2019-06-12T02:20:02,42.805,6.029,CST-1368DR,9093,12723,15536,0.021,551
2019-06-12T02:23:03,42.805,6.029,CST-1368DR,9093,12721,15534,0.021,551
2019-06-12T02:26:05,42.805,6.029,CST-1368DR,9093,12722,15535,0.021,551
2019-06-12T02:29:06,42.805,6.029,CST-1368DR,9093,12722,15535,0.021,551
2019-06-12T02:32:08,42.805,6.029,CST-1368DR,9093,12723,15537,0.020,551
2019-06-12T02:35:09,42.805,6.029,CST-1368DR,9093,12723,15537,0.020,551
2019-06-12T02:38:10,42.805,6.029,CST-1368DR,9093,12723,15536,0.021,551
2019-06-12T02:41:12,42.805,6.029,CST-1368DR,9093,12722,15535,0.021,551
2019-06-12T02:44:13,42.805,6.029,CST-1368DR,9093,12720,15533,0.021,551
2019-06-12T02:47:15,42.805,6.029,CST-1368DR,9093,12721,15534,0.021,551
2019-06-12T02:50:16,42.805,6.029,CST-1368DR,9093,12722,15535,0.021,551
2019-06-12T02:53:17,42.805,6.029,CST-1368DR,9093,12721,15533,0.021,551
2019-06-12T02:56:19,42.805,6.029,CST-1368DR,9093,12719,15531,0.022,551
2019-06-12T02:59:20,42.805,6.029,CST-1368DR,9093,12721,15533,0.021,551
2019-06-12T03:02:22,42.805,6.029,CST-1368DR,9093,12721,15533,0.021,550
2019-06-12T03:05:23,42.805,6.029,CST-1368DR,9093,12721,15534,0.021,551
2019-06-12T03:08:24,42.805,6.029,CST-1368DR,9093,12717,15529,0.022,551
2019-06-12T03:11:26,42.805,6.029,CST-1368DR,9093,12722,15535,0.021,551
2019-06-12T03:14:27,42.805,6.029,CST-1368DR,9093,12721,15534,0.021,551
2019-06-12T03:17:29,42.805,6.029,CST-1368DR,9093,12720,15533,0.021,551
2019-06-12T03:20:30,42.805,6.029,CST-1368DR,9093,12722,15535,0.021,551
2019-06-12T03:23:32,42.805,6.029,CST-1368DR,9093,12722,15535,0.021,551
2019-06-12T03:26:33,42.805,6.029,CST-1368DR,9093,12720,15533,0.021,551
2019-06-12T03:29:34,42.805,6.029,CST-1368DR,9092,12722,15537,0.020,551
2019-06-12T03:32:36,42.805,6.029,CST-1368DR,9092,12720,15534,0.021,551
2019-06-12T03:35:37,42.805,6.029,CST-1368DR,9092,12721,15535,0.021,551
2019-06-12T03:38:39,42.805,6.029,CST-1368DR,9092,12721,15536,0.021,551
2019-06-12T03:41:40,42.805,6.029,CST-1368DR,9092,12721,15535,0.021,551
2019-06-12T03:44:41,42.805,6.029,CST-1368DR,9092,12719,15532,0.022,551
2019-06-12T03:47:43,42.805,6.029,CST-1368DR,9092,12720,15534,0.021,550
2019-06-12T03:50:44,42.805,6.029,CST-1368DR,9092,12721,15535,0.021,551
2019-06-12T03:53:46,42.805,6.029,CST-1368DR,9092,12720,15534,0.021,551
2019-06-12T03:56:47,42.805,6.029,CST-1368DR,9092,12721,15536,0.021,551
2019-06-12T03:59:48,42.805,6.029,CST-1368DR,9092,12721,15535,0.021,551
2019-06-12T04:02:50,42.805,6.029,CST-1368DR,9092,12719,15533,0.021,551
2019-06-12T04:05:51,42.805,6.029,CST-1368DR,9092,12721,15535,0.021,550
2019-06-12T04:08:53,42.805,6.029,CST-1368DR,9092,12721,15535,0.021,551
2019-06-12T04:11:54,42.805,6.029,CST-1368DR,9092,12718,15532,0.022,551
2019-06-12T04:14:55,42.805,6.029,CST-1368DR,9092,12719,15533,0.021,551
2019-06-12T04:17:57,42.805,6.029,CST-1368DR,9092,12717,15530,0.022,551
2019-06-12T04:20:58,42.805,6.029,CST-1368DR,9092,12719,15533,0.021,550
2019-06-12T04:24:00,42.805,6.029,CST-1368DR,9092,12720,15534,0.021,551
2019-06-12T04:27:01,42.805,6.029,CST-1368DR,9092,12720,15534,0.021,551
2019-06-12T04:30:03,42.805,6.029,CST-1368DR,9092,12720,15534,0.021,551
2019-06-12T04:33:04,42.805,6.029,CST-1368DR,9092,12721,15535,0.021,551
2019-06-12T04:36:05,42.805,6.029,CST-1368DR,9092,12718,15532,0.022,551
2019-06-12T04:39:07,42.805,6.029,CST-1368DR,9092,12718,15531,0.022,551
2019-06-12T04:42:08,42.805,6.029,CST-1368DR,9092,12721,15536,0.021,550
2019-06-12T04:45:10,42.805,6.029,CST-1368DR,9092,12721,15535,0.021,551
2019-06-12T04:48:11,42.805,6.029,CST-1368DR,9092,12719,15533,0.021,551
2019-06-12T04:51:12,42.805,6.029,CST-1368DR,9091,12719,15535,0.021,551
2019-06-12T04:54:14,42.805,6.029,CST-1368DR,9091,12719,15535,0.021,551
2019-06-12T04:57:15,42.805,6.029,CST-1368DR,9091,12721,15536,0.021,550
2019-06-12T05:00:17,42.805,6.029,CST-1368DR,9091,12720,15535,0.021,551
2019-06-12T05:03:18,42.805,6.029,CST-1368DR,9091,12719,15534,0.021,551
2019-06-12T05:06:19,42.805,6.029,CST-1368DR,9091,12718,15534,0.021,551
2019-06-12T05:09:21,42.805,6.029,CST-1368DR,9091,12719,15535,0.021,551
2019-06-12T05:12:22,42.805,6.029,CST-1368DR,9091,12721,15536,0.021,551
2019-06-12T05:15:24,42.805,6.029,CST-1368DR,9091,12719,15534,0.021,551
2019-06-12T05:18:25,42.805,6.029,CST-1368DR,9091,12720,15535,0.021,551
2019-06-12T05:21:26,42.805,6.029,CST-1368DR,9091,12720,15535,0.021,551
2019-06-12T05:24:28,42.805,6.029,CST-1368DR,9091,12721,15537,0.020,551
2019-06-12T05:27:29,42.805,6.029,CST-1368DR,9091,12720,15536,0.021,551
2019-06-12T05:30:31,42.805,6.029,CST-1368DR,9091,12720,15535,0.021,551
2019-06-12T05:33:32,42.805,6.029,CST-1368DR,9091,12721,15537,0.020,551
2019-06-12T05:36:34,42.805,6.029,CST-1368DR,9091,12720,15536,0.021,551
2019-06-12T05:39:35,42.805,6.029,CST-1368DR,9091,12721,15537,0.020,551
2019-06-12T05:42:36,42.805,6.029,CST-1368DR,9091,12720,15535,0.021,551
2019-06-12T05:45:38,42.805,6.029,CST-1368DR,9091,12721,15536,0.021,551
2019-06-12T05:48:39,42.805,6.029,CST-1368DR,9091,12719,15534,0.021,551
2019-06-12T05:51:41,42.805,6.029,CST-1368DR,9091,12712,15526,0.023,551
2019-06-12T05:54:42,42.805,6.029,CST-1368DR,9091,12719,15534,0.021,551
2019-06-12T05:57:43,42.805,6.029,CST-1368DR,9091,12716,15530,0.022,551
2019-06-12T06:00:45,42.805,6.029,CST-1368DR,9091,12721,15536,0.021,551
2019-06-12T06:03:46,42.805,6.029,CST-1368DR,9091,12720,15536,0.021,551
2019-06-12T06:06:48,42.805,6.029,CST-1368DR,9091,12719,15535,0.021,551
2019-06-12T06:09:49,42.805,6.029,CST-1368DR,9091,12720,15535,0.021,550
2019-06-12T06:12:50,42.805,6.029,CST-1368DR,9091,12720,15536,0.021,551
2019-06-12T06:15:52,42.805,6.029,CST-1368DR,9091,12719,15535,0.021,551
2019-06-12T06:18:53,42.805,6.029,CST-1368DR,9091,12719,15535,0.021,551
2019-06-12T06:21:55,42.805,6.029,CST-1368DR,9090,12719,15536,0.021,551
2019-06-12T06:24:56,42.805,6.029,CST-1368DR,9090,12720,15537,0.020,551
2019-06-12T06:27:57,42.805,6.029,CST-1368DR,9090,12717,15534,0.021,551
2019-06-12T06:30:59,42.805,6.029,CST-1368DR,9090,12718,15534,0.021,551
2019-06-12T06:34:00,42.805,6.029,CST-1368DR,9090,12719,15535,0.021,550
2019-06-12T06:37:02,42.805,6.029,CST-1368DR,9090,12720,15537,0.020,551
2019-06-12T06:40:03,42.805,6.029,CST-1368DR,9090,12719,15536,0.021,551
2019-06-12T06:43:05,42.805,6.029,CST-1368DR,9090,12718,15535,0.021,551
2019-06-12T06:46:06,42.805,6.029,CST-1368DR,9090,12718,15535,0.021,551
2019-06-12T06:49:07,42.805,6.029,CST-1368DR,9090,12720,15537,0.020,551
2019-06-12T06:52:09,42.805,6.029,CST-1368DR,9090,12719,15536,0.021,551
2019-06-12T06:55:10,42.805,6.029,CST-1368DR,9090,12717,15533,0.021,551
2019-06-12T06:58:12,42.805,6.029,CST-1368DR,9090,12720,15537,0.020,551
2019-06-12T07:01:13,42.805,6.029,CST-1368DR,9090,12720,15537,0.020,551
2019-06-12T07:04:14,42.805,6.029,CST-1368DR,9090,12712,15527,0.023,551
2019-06-12T07:07:16,42.805,6.029,CST-1368DR,9090,12718,15535,0.021,551
2019-06-12T07:10:17,42.805,6.029,CST-1368DR,9090,12720,15537,0.020,551
2019-06-12T07:13:19,42.805,6.029,CST-1368DR,9090,12716,15532,0.022,551
2019-06-12T07:16:20,42.805,6.029,CST-1368DR,9090,12718,15535,0.021,550
2019-06-12T07:19:21,42.805,6.029,CST-1368DR,9090,12719,15536,0.021,551
2019-06-12T07:22:23,42.805,6.029,CST-1368DR,9089,12694,15507,0.028,551
2019-06-12T07:25:24,42.805,6.029,CST-1368DR,9090,12716,15532,0.022,551
2019-06-12T07:28:26,42.805,6.029,CST-1368DR,9090,12719,15536,0.021,551
2019-06-12T07:31:27,42.805,6.029,CST-1368DR,9090,12720,15537,0.020,550
2019-06-12T07:34:29,42.805,6.029,CST-1368DR,9090,12718,15534,0.021,551
2019-06-12T07:37:30,42.805,6.029,CST-1368DR,9089,12717,15535,0.021,551
2019-06-12T07:40:31,42.805,6.029,CST-1368DR,9089,12718,15536,0.021,551
2019-06-12T07:43:33,42.805,6.029,CST-1368DR,9089,12719,15538,0.020,551
2019-06-12T07:46:34,42.805,6.029,CST-1368DR,9090,12720,15537,0.020,551
2019-06-12T07:49:36,42.805,6.029,CST-1368DR,9090,12718,15535,0.021,551
2019-06-12T07:52:37,42.805,6.029,CST-1368DR,9089,12718,15536,0.021,551
2019-06-12T07:55:38,42.805,6.029,CST-1368DR,9089,12717,15535,0.021,551
2019-06-12T07:58:40,42.805,6.029,CST-1368DR,9089,12717,15535,0.021,551
2019-06-12T08:01:41,42.805,6.029,CST-1368DR,9089,12721,15539,0.020,551
2019-06-12T08:04:43,42.805,6.029,CST-1368DR,9089,12717,15535,0.021,551
2019-06-12T08:07:44,42.805,6.029,CST-1368DR,9089,12718,15536,0.021,551
2019-06-12T08:10:45,42.805,6.029,CST-1368DR,9089,12720,15538,0.020,550
2019-06-12T08:13:47,42.805,6.029,CST-1368DR,9089,12718,15536,0.021,551
2019-06-12T08:16:48,42.805,6.029,CST-1368DR,9089,12714,15532,0.022,551
2019-06-12T08:19:50,42.805,6.029,CST-1368DR,9089,12718,15536,0.021,551
2019-06-12T08:22:51,42.805,6.029,CST-1368DR,9089,12719,15537,0.020,551
2019-06-12T08:25:52,42.805,6.029,CST-1368DR,9089,12718,15537,0.020,551
2019-06-12T08:28:54,42.805,6.029,CST-1368DR,9089,12718,15537,0.020,551
2019-06-12T08:31:55,42.805,6.029,CST-1368DR,9089,12718,15536,0.021,551
2019-06-12T08:34:57,42.805,6.029,CST-1368DR,9089,12718,15536,0.021,551
2019-06-12T08:37:58,42.805,6.029,CST-1368DR,9089,12719,15538,0.020,551
2019-06-12T08:41:00,42.805,6.029,CST-1368DR,9089,12718,15536,0.021,551
2019-06-12T08:44:01,42.805,6.029,CST-1368DR,9089,12719,15538,0.020,550
2019-06-12T08:47:02,42.805,6.029,CST-1368DR,9089,12719,15538,0.020,550
2019-06-12T08:50:04,42.805,6.029,CST-1368DR,9089,12717,15536,0.021,551
2019-06-12T08:53:05,42.805,6.029,CST-1368DR,9089,12719,15538,0.020,551
2019-06-12T08:56:07,42.805,6.029,CST-1368DR,9089,12714,15532,0.022,551
2019-06-12T08:59:08,42.805,6.029,CST-1368DR,9089,12717,15535,0.021,551
2019-06-12T09:02:09,42.805,6.029,CST-1368DR,9089,12719,15538,0.020,551
2019-06-12T09:05:11,42.805,6.029,CST-1368DR,9089,12717,15535,0.021,551
2019-06-12T09:08:12,42.805,6.029,CST-1368DR,9089,12718,15537,0.020,551
2019-06-12T09:11:14,42.805,6.029,CST-1368DR,9089,12718,15537,0.020,551
2019-06-12T09:14:15,42.805,6.029,CST-1368DR,9089,12718,15537,0.020,551
2019-06-12T09:17:16,42.805,6.029,CST-1368DR,9089,12718,15537,0.020,550
2019-06-12T09:20:18,42.805,6.029,CST-1368DR,9088,12717,15537,0.020,551
2019-06-12T09:23:19,42.805,6.029,CST-1368DR,9088,12718,15538,0.020,551
2019-06-12T09:26:21,42.805,6.029,CST-1368DR,9088,12718,15537,0.020,550
2019-06-12T09:29:22,42.805,6.029,CST-1368DR,9088,12718,15537,0.020,551
2019-06-12T09:32:23,42.805,6.029,CST-1368DR,9089,12717,15535,0.021,551
2019-06-12T09:35:25,42.805,6.029,CST-1368DR,9088,12718,15538,0.020,551
2019-06-12T09:38:26,42.805,6.029,CST-1368DR,9088,12718,15538,0.020,551
2019-06-12T09:41:28,42.805,6.029,CST-1368DR,9088,12718,15538,0.020,551
2019-06-12T09:44:29,42.805,6.029,CST-1368DR,9088,12715,15535,0.021,551
2019-06-12T09:47:31,42.805,6.029,CST-1368DR,9088,12718,15538,0.020,551
2019-06-12T09:50:32,42.805,6.029,CST-1368DR,9088,12717,15537,0.020,551
2019-06-12T09:53:33,42.805,6.029,CST-1368DR,9088,12719,15539,0.020,551
2019-06-12T09:56:35,42.805,6.029,CST-1368DR,9088,12719,15539,0.020,551
2019-06-12T09:59:36,42.805,6.029,CST-1368DR,9088,12717,15537,0.020,551
2019-06-12T10:02:38,42.805,6.029,CST-1368DR,9088,12713,15532,0.022,551
2019-06-12T10:05:39,42.805,6.029,CST-1368DR,9088,12717,15537,0.020,551
2019-06-12T10:08:40,42.805,6.029,CST-1368DR,9088,12717,15536,0.021,551
2019-06-12T10:11:42,42.805,6.029,CST-1368DR,9088,12717,15537,0.020,551
2019-06-12T10:14:43,42.805,6.029,CST-1368DR,9088,12718,15538,0.020,551
2019-06-12T10:17:45,42.805,6.029,CST-1368DR,9088,12716,15536,0.021,551
2019-06-12T10:20:46,42.805,6.029,CST-1368DR,9088,12716,15536,0.021,551
2019-06-12T10:23:47,42.805,6.029,CST-1368DR,9088,12717,15537,0.020,551
2019-06-12T10:26:49,42.805,6.029,CST-1368DR,9088,12718,15538,0.020,551
2019-06-12T10:29:50,42.805,6.029,CST-1368DR,9088,12717,15536,0.021,551
2019-06-12T10:32:52,42.805,6.029,CST-1368DR,9088,12716,15535,0.021,551
2019-06-12T10:35:53,42.805,6.029,CST-1368DR,9088,12715,15534,0.021,551
2019-06-12T10:38:54,42.805,6.029,CST-1368DR,9088,12716,15536,0.021,551
2019-06-12T10:41:56,42.805,6.029,CST-1368DR,9088,12718,15538,0.020,551
2019-06-12T10:44:57,42.805,6.029,CST-1368DR,9088,12717,15537,0.020,551
2019-06-12T10:47:59,42.805,6.029,CST-1368DR,9087,12717,15538,0.020,551
2019-06-12T10:51:00,42.805,6.029,CST-1368DR,9088,12715,15534,0.021,550
2019-06-12T10:54:02,42.805,6.029,CST-1368DR,9087,12711,15531,0.022,551
2019-06-12T10:57:03,42.805,6.029,CST-1368DR,9088,12714,15533,0.021,551
2019-06-12T11:00:04,42.805,6.029,CST-1368DR,9088,12715,15535,0.021,551
2019-06-12T11:03:06,42.805,6.029,CST-1368DR,9088,12717,15537,0.020,551
2019-06-12T11:06:07,42.805,6.029,CST-1368DR,9088,12717,15537,0.020,551
2019-06-12T11:09:09,42.805,6.029,CST-1368DR,9088,12713,15532,0.022,551
2019-06-12T11:12:10,42.805,6.029,CST-1368DR,9088,12717,15536,0.021,551
2019-06-12T11:15:11,42.805,6.029,CST-1368DR,9087,12714,15534,0.021,551
2019-06-12T11:18:13,42.805,6.029,CST-1368DR,9087,12716,15537,0.020,551
2019-06-12T11:21:14,42.805,6.029,CST-1368DR,9087,12717,15538,0.020,551
2019-06-12T11:24:16,42.805,6.029,CST-1368DR,9087,12716,15537,0.020,550
2019-06-12T11:27:17,42.805,6.029,CST-1368DR,9087,12717,15539,0.020,551
2019-06-12T11:30:18,42.805,6.029,CST-1368DR,9087,12715,15536,0.021,550
2019-06-12T11:33:20,42.805,6.029,CST-1368DR,9087,12715,15536,0.021,551
2019-06-12T11:36:21,42.805,6.029,CST-1368DR,9087,12716,15537,0.020,551
2019-06-12T11:39:23,42.805,6.029,CST-1368DR,9087,12716,15537,0.020,551
2019-06-12T11:42:24,42.805,6.029,CST-1368DR,9087,12713,15533,0.021,551
2019-06-12T11:45:25,42.805,6.029,CST-1368DR,9087,12715,15536,0.021,551
2019-06-12T11:48:27,42.805,6.029,CST-1368DR,9087,12716,15537,0.020,551
2019-06-12T11:51:28,42.805,6.029,CST-1368DR,9087,12715,15536,0.021,551
2019-06-12T11:54:30,42.805,6.029,CST-1368DR,9087,12716,15537,0.020,551
2019-06-12T11:57:31,42.805,6.029,CST-1368DR,9087,12707,15526,0.023,551
2019-06-12T12:00:33,42.805,6.029,CST-1368DR,9087,12714,15535,0.021,551
2019-06-12T12:03:34,42.805,6.029,CST-1368DR,9087,12715,15536,0.021,551
2019-06-12T12:06:35,42.805,6.029,CST-1368DR,9087,12714,15535,0.021,551
2019-06-12T12:09:37,42.805,6.029,CST-1368DR,9087,12714,15534,0.021,551
2019-06-12T12:12:38,42.805,6.029,CST-1368DR,9087,12715,15536,0.021,551
2019-06-12T12:15:40,42.805,6.029,CST-1368DR,9087,12712,15533,0.021,551
2019-06-12T12:18:41,42.805,6.029,CST-1368DR,9087,12714,15535,0.021,551
2019-06-12T12:21:42,42.805,6.029,CST-1368DR,9087,12716,15537,0.020,550
2019-06-12T12:24:44,42.805,6.029,CST-1368DR,9087,12715,15536,0.021,551
2019-06-12T12:27:45,42.805,6.029,CST-1368DR,9087,12715,15536,0.021,551
2019-06-12T12:30:47,42.805,6.029,CST-1368DR,9087,12715,15536,0.021,551
2019-06-12T12:33:48,42.805,6.029,CST-1368DR,9087,12715,15536,0.021,551
2019-06-12T12:36:49,42.805,6.029,CST-1368DR,9087,12714,15535,0.021,551
2019-06-12T12:39:51,42.805,6.029,CST-1368DR,9087,12715,15536,0.021,551
2019-06-12T12:42:52,42.805,6.029,CST-1368DR,9087,12714,15535,0.021,551
2019-06-12T12:45:54,42.805,6.029,CST-1368DR,9087,12711,15531,0.022,551
2019-06-12T12:48:55,42.805,6.029,CST-1368DR,9087,12714,15535,0.021,551
2019-06-12T12:51:57,42.805,6.029,CST-1368DR,9086,12715,15537,0.020,551
2019-06-12T12:54:58,42.805,6.029,CST-1368DR,9086,12715,15537,0.020,551
2019-06-12T12:57:59,42.805,6.029,CST-1368DR,9086,12714,15536,0.021,551
2019-06-12T13:01:01,42.805,6.029,CST-1368DR,9086,12714,15537,0.020,551
2019-06-12T13:04:02,42.805,6.029,CST-1368DR,9086,12713,15535,0.021,551
2019-06-12T13:07:04,42.805,6.029,CST-1368DR,9086,12714,15536,0.021,551
2019-06-12T13:10:05,42.805,6.029,CST-1368DR,9086,12713,15535,0.021,551
2019-06-12T13:13:06,42.805,6.029,CST-1368DR,9087,12714,15534,0.021,551
2019-06-12T13:16:08,42.805,6.029,CST-1368DR,9086,12712,15534,0.021,551
2019-06-12T13:19:09,42.805,6.029,CST-1368DR,9086,12711,15533,0.021,551
2019-06-12T13:22:11,42.805,6.029,CST-1368DR,9086,12714,15537,0.020,551
2019-06-12T13:25:12,42.805,6.029,CST-1368DR,9086,12714,15537,0.020,551
2019-06-12T13:28:13,42.805,6.029,CST-1368DR,9086,12711,15533,0.021,551
2019-06-12T13:31:15,42.805,6.029,CST-1368DR,9086,12714,15536,0.021,551
2019-06-12T13:34:16,42.805,6.029,CST-1368DR,9086,12714,15536,0.021,551
2019-06-12T13:37:18,42.805,6.029,CST-1368DR,9086,12711,15533,0.021,551
2019-06-12T13:40:19,42.805,6.029,CST-1368DR,9086,12710,15532,0.022,551
2019-06-12T13:43:20,42.805,6.029,CST-1368DR,9086,12713,15535,0.021,551
2019-06-12T13:46:22,42.805,6.029,CST-1368DR,9086,12714,15536,0.021,551
2019-06-12T13:49:23,42.805,6.029,CST-1368DR,9086,12712,15534,0.021,551
2019-06-12T13:52:25,42.805,6.029,CST-1368DR,9086,12710,15531,0.022,551
2019-06-12T13:55:26,42.805,6.029,CST-1368DR,9086,12711,15533,0.021,551
2019-06-12T13:58:28,42.805,6.029,CST-1368DR,9086,12712,15533,0.021,550
2019-06-12T14:01:29,42.805,6.029,CST-1368DR,9086,12713,15534,0.021,551
2019-06-12T14:04:30,42.805,6.029,CST-1368DR,9086,12714,15536,0.021,551
2019-06-12T14:07:32,42.805,6.029,CST-1368DR,9086,12712,15534,0.021,551
2019-06-12T14:10:33,42.805,6.029,CST-1368DR,9086,12712,15534,0.021,551
2019-06-12T14:13:35,42.805,6.029,CST-1368DR,9086,12713,15535,0.021,551
2019-06-12T14:16:36,42.805,6.029,CST-1368DR,9086,12712,15534,0.021,550
2019-06-12T14:19:37,42.805,6.029,CST-1368DR,9086,12712,15534,0.021,551
2019-06-12T14:22:39,42.805,6.029,CST-1368DR,9085,12712,15535,0.021,551
2019-06-12T14:25:40,42.805,6.029,CST-1368DR,9085,12710,15533,0.021,551
2019-06-12T14:28:42,42.805,6.029,CST-1368DR,9086,12713,15535,0.021,551
2019-06-12T14:31:43,42.805,6.029,CST-1368DR,9086,12712,15534,0.021,551
2019-06-12T14:34:44,42.805,6.029,CST-1368DR,9085,12713,15536,0.021,551
2019-06-12T14:37:46,42.805,6.029,CST-1368DR,9085,12713,15536,0.021,551
2019-06-12T14:40:47,42.805,6.029,CST-1368DR,9085,12709,15532,0.022,551
2019-06-12T14:43:49,42.805,6.029,CST-1368DR,9085,12713,15536,0.021,551
2019-06-12T14:46:50,42.805,6.029,CST-1368DR,9085,12714,15537,0.020,551
2019-06-12T14:49:51,42.805,6.029,CST-1368DR,9085,12714,15538,0.020,551
2019-06-12T14:52:53,42.805,6.029,CST-1368DR,9085,12714,15537,0.020,550
2019-06-12T14:55:54,42.805,6.029,CST-1368DR,9085,12715,15538,0.020,551
2019-06-12T14:58:56,42.805,6.029,CST-1368DR,9085,12713,15536,0.021,551
2019-06-12T15:01:57,42.805,6.029,CST-1368DR,9085,12713,15536,0.021,551
2019-06-12T15:04:59,42.805,6.029,CST-1368DR,9085,12715,15539,0.020,551
2019-06-12T15:08:00,42.805,6.029,CST-1368DR,9085,12714,15537,0.020,551
2019-06-12T15:11:01,42.805,6.029,CST-1368DR,9085,12715,15538,0.020,551
2019-06-12T15:14:03,42.805,6.029,CST-1368DR,9085,12715,15539,0.020,551
2019-06-12T15:17:04,42.805,6.029,CST-1368DR,9085,12714,15538,0.020,551
2019-06-12T15:20:06,42.805,6.029,CST-1368DR,9085,12692,15511,0.027,551
2019-06-12T15:23:07,42.805,6.029,CST-1368DR,9085,12713,15537,0.020,551
2019-06-12T15:26:08,42.805,6.029,CST-1368DR,9085,12714,15538,0.020,551
2019-06-12T15:29:10,42.805,6.029,CST-1368DR,9085,12711,15534,0.021,551
2019-06-12T15:32:11,42.805,6.029,CST-1368DR,9085,12715,15538,0.020,551
2019-06-12T15:35:13,42.805,6.029,CST-1368DR,9085,12712,15535,0.021,551
2019-06-12T15:38:14,42.805,6.029,CST-1368DR,9085,12714,15537,0.020,551
2019-06-12T15:41:15,42.805,6.029,CST-1368DR,9085,12715,15539,0.020,551
2019-06-12T15:44:17,42.805,6.029,CST-1368DR,9085,12714,15538,0.020,551
2019-06-12T15:47:18,42.805,6.029,CST-1368DR,9085,12713,15536,0.021,551
2019-06-12T15:50:20,42.805,6.029,CST-1368DR,9085,12714,15538,0.020,551
2019-06-12T15:53:21,42.805,6.029,CST-1368DR,9085,12714,15538,0.020,551
2019-06-12T15:56:22,42.805,6.029,CST-1368DR,9085,12715,15539,0.020,551
2019-06-12T15:59:24,42.805,6.029,CST-1368DR,9085,12714,15538,0.020,550
2019-06-12T16:02:25,42.805,6.029,CST-1368DR,9085,12714,15538,0.020,551
2019-06-12T16:05:27,42.805,6.029,CST-1368DR,9085,12715,15539,0.020,551
2019-06-12T16:08:28,42.805,6.029,CST-1368DR,9085,12715,15538,0.020,551
2019-06-12T16:11:30,42.805,6.029,CST-1368DR,9085,12708,15530,0.022,551
2019-06-12T16:14:31,42.805,6.029,CST-1368DR,9085,12714,15538,0.020,551
2019-06-12T16:17:32,42.805,6.029,CST-1368DR,9085,12715,15538,0.020,551
2019-06-12T16:20:34,42.805,6.029,CST-1368DR,9084,12715,15540,0.020,550
2019-06-12T16:23:35,42.805,6.029,CST-1368DR,9085,12714,15538,0.020,551
2019-06-12T16:26:37,42.805,6.029,CST-1368DR,9084,12714,15539,0.020,551
2019-06-12T16:29:38,42.805,6.029,CST-1368DR,9084,12711,15536,0.021,551
2019-06-12T16:32:39,42.805,6.029,CST-1368DR,9084,12714,15539,0.020,551
2019-06-12T16:35:41,42.805,6.029,CST-1368DR,9084,12715,15540,0.020,551